Showing default

KINEIS-4A, 63303

Orbit data source: Space-Track

KINEIS-4A, 63303 is a French payload satellite in SSO that was launched on Tue, 18 Mar 2025 UTC via an ELECTRON launch vehicle from the Rocket Lab Launch Complex (RLLC). Payload-class satellites include a variety of spacecraft equipped with specific instruments for various scientific and technological missions. These include communications satellites like Starlink; space stations such as the ISS; scientific satellites like the Hubble; Earth observation satellites from companies like Planet Labs, Umbra, and HawkEye 360; GPS; miniature CubeSats for education and research; and military/defense satellites.

Loading next visibility...
Identifier
63303, 2025-056D
Orbit
SSO
Country
Flag of FRFR
Related business
Manufacturer
KINEIS
Mission
Operational Commercial Communications
Bus & Motor
CUBESAT 16U, Unknown motor
Mass
28 kg wet, 28 kg dry
Launch date (UTC)
2025-03-18 (11 months ago)
Launch vehicle
ELECTRON
Launch site
Rocket Lab Launch Complex (RLLC)
Object type
Payload
Rocket body
Debris
Shape & HBR
Box + 2 Pan + 1 Ant, 1.0 m
Radar Cross Section
0.229 m², Medium (>0.1 m² and < 1m²)

Expand to show TLE details & history
Last TLE update: 5 hours ago

TLE from 5 hours ago
0 KINEIS-4A
1 63303U 25056D   26034.28094093  .00002155  00000-0  34901-3 0  9996
2 63303  97.9969 161.2138 0002701  26.9970 333.1377 14.72271275 47423
Epoch: 2026-02-03T06:44Z
TLE epoch observation values (Epoch: 2026-02-03T06:44:33.296Z)
Latitude
-0.00006°
Longitude
-73.38905°
Altitude
655.14 km
Speed
7.531 km/s
True Right ascension
10h 44m 51s
True Declination
0° 00' 00"
Sunlit
Object was in full shadow at epoch
Visualization orbit readout
Latitude
Unknown
Longitude
Unknown
Altitude
Unknown
Speed
Unknown
Apparent Right ascension
Unknown
Apparent Declination
Unknown
Sunlit
N/A
Visualization observer readout
Local Sidereal Time
13:22:21
Azimuth
Unknown
Elevation
Unknown
Doppler factor
Unknown
Orbital elements
Apogee altitude
652.781 km
Perigee altitude
648.984 km
Semi-major axis
7,029.019 km
Eccentricity
0.00027
Inclination
97.9969°
RAAN
161.2138°
Arg. of periapsis
26.997°
True anomaly
333.12371°
Mean anomaly
333.1377°
Eccentric anomaly
333.13071°
Mean motion
3.68299 °/min
Orbital period
97.75 mins
BSTAR
0.00034901
Loading maneuver chart data...
Computing Atmospheric mass density...
Loading historical data...
Loading historical data...
Loading historical data...
Loading historical data...
Loading historical data...
Loading historical data...
Loading historical data...

Documentation

Showing up to 5 results
|